Regional Weather Roundup
Issued by NWS Goodland, KS

Home | Current Version | Previous Version | Text Only | Print | Product List | Glossary Off
Versions: 1 2 3 4 5 6 7 8 9 10 11 12 13 14 15 16 17 18 19 20 21 22 23 24 25 26 27 28 29 30 31 32 33 34 35 36 37 38 39 40 41 42 43 44 45 46 47 48 49 50

000
ASUS43 KGLD 140708
RWRGLD

GOODLAND FORECAST AREA HOURLY WEATHER ROUNDUP
NATIONAL WEATHER SERVICE GOODLAND KS
1200 AM MST THU DEC 14 2017

...OFFICIAL OBSERVATIONS...

CITY           SKY/WX    TMP DP  RH WIND       PRES   REMARKS
GOODLAND KS    CLOUDY    38  19  46 N12       30.10F
HILL CITY KS   PTCLDY    39  23  52 NW10      30.09
IMPERIAL NEB   CLOUDY    37  21  52 W7        30.12R
MCCOOK NEB     CLOUDY    37  22  54 NW9       30.09F
AKRON CO       CLOUDY    35  16  45 N16G23    30.14R
BURLINGTON CO  CLOUDY    37  19  48 N10       30.12R
LIMON CO       CLOUDY    34  16  47 N16       30.13S
$$

...UNOFFICIAL OBSERVATIONS...

CITY           SKY/WX    TMP DP  RH WIND       PRES   REMARKS
COLBY KS       CLOUDY    37  25  60 NW9       30.13R
LENORA KS        N/A     36  32  85 N7          N/A
NORTON KS      PTCLDY    34  18  51 W7        30.08
SHARON SPRINGS   N/A     35  20  54 N5          N/A
TRIBUNE KS     CLOUDY    39  19  45 N10       30.13
TRENTON NEB      N/A     36  32  85 NW5         N/A
KIT CARSON CO    N/A     35  15  45 CALM        N/A
YUMA CO        CLOUDY    34  18  51 N6        30.13S
$$



USA.gov is the U.S. government's official web portal to all federal, state and local government web resources and services.